Stations météo

Publicité
Socoa, France (7600): Température de l'air & dewpoint: 20.06.2017 07:00:00 - 26.06.2017 07:00:00 (CEST)Socoa, France (7600): Vitesse du vent & gusts: 20.06.2017 07:00:00 - 26.06.2017 07:00:00 (CEST)Socoa, France (7600): Direction du vent: 20.06.2017 07:00:00 - 26.06.2017 07:00:00 (CEST)Socoa, France (7600): reduced air pressure: 20.06.2017 07:00:00 - 26.06.2017 07:00:00 (CEST)Socoa, France (7600): visibility: 20.06.2017 07:00:00 - 26.06.2017 07:00:00 (CEST)Socoa, France (7600): Quantités de précipitations: 20.06.2017 07:00:00 - 26.06.2017 07:00:00 (CEST)
Date & Time tt [°C] td [°C] ff [km/h] ff [knt] fx [km/h] fx [knt] dd ppp [hPa] vv [km] rr [mm]
26.06.2017 07:00:00 19,7 19,0 5 3 20 11 E 1010,1 - 0,0
26.06.2017 06:00:00 19,9 19,2 13 7 18 10 S 1010,1 - 0,0
26.06.2017 05:00:00 19,9 18,9 10 6 27 14 SW 1011,2 - 0,0
26.06.2017 04:00:00 19,9 18,9 13 7 34 18 WSW 1011,2 - 0,0
26.06.2017 03:00:00 20,2 19,2 21 11 34 18 E 1010,3 - 1,0
26.06.2017 02:00:00 20,3 19,3 10 6 17 9 SE 1012,9 - 0,2
26.06.2017 01:00:00 20,3 19,1 7 4 14 8 SSW 1013,5 - 0,0
26.06.2017 00:00:00 20,5 19,2 11 6 16 9 SSW 1014,7 - 0,0
25.06.2017 23:00:00 21,4 19,5 3 1 9 5 W 1014,9 - 0,4
25.06.2017 22:00:00 21,8 18,6 7 4 21 12 SE 1015,2 - 0,0
25.06.2017 21:00:00 21,8 17,8 17 9 27 14 NE 1014,9 - 0,0
25.06.2017 20:00:00 22,2 18,2 23 13 29 16 NNE 1014,8 - 0,0
25.06.2017 19:00:00 22,4 17,7 22 12 32 17 N 1015,4 - 0,0
25.06.2017 18:00:00 24,8 17,5 16 8 31 17 NE 1015,8 - 0,0
25.06.2017 17:00:00 23,9 16,2 23 12 34 18 ESE 1016,4 - 0,0
25.06.2017 16:00:00 24,9 16,9 20 11 38 20 ESE 1017,1 - 0,0
25.06.2017 15:00:00 25,3 16,2 22 12 37 20 E 1017,7 - 0,0
25.06.2017 14:00:00 24,6 15,5 13 7 33 18 ESE 1018,3 20 0,0
25.06.2017 13:00:00 24,5 16,0 17 9 31 17 E 1019,1 - 0,0
25.06.2017 12:00:00 23,8 15,3 19 10 33 18 E 1019,5 - 0,0
25.06.2017 11:00:00 23,3 16,1 14 7 30 16 E 1019,9 20 0,0
25.06.2017 10:00:00 22,2 16,0 22 12 32 17 ESE 1020,1 - 0,0
25.06.2017 09:00:00 20,1 15,5 14 8 21 11 ESE 1020,7 - 0,0
25.06.2017 08:00:00 18,7 15,4 6 3 17 9 ESE 1021,0 20 0,0
25.06.2017 07:00:00 17,5 16,0 10 5 13 7 SE 1020,3 - 0,0
25.06.2017 06:00:00 16,6 15,0 6 3 11 6 S 1020,7 - 0,0
25.06.2017 05:00:00 16,3 14,8 11 6 13 7 S 1021,0 - 0,0
25.06.2017 04:00:00 16,7 15,2 11 6 12 6 S 1021,1 - 0,0
25.06.2017 03:00:00 17,3 15,3 9 5 12 6 SSW 1021,8 - 0,0
25.06.2017 02:00:00 18,2 15,8 7 4 13 7 SSW 1022,2 20 0,0
25.06.2017 01:00:00 19,9 14,7 7 4 15 8 NNW 1022,8 - 0,0
25.06.2017 00:00:00 20,6 14,7 12 6 21 11 NNW 1022,9 - 0,0
24.06.2017 23:00:00 20,7 14,8 8 5 18 10 NNW 1022,9 - 0,0
24.06.2017 22:00:00 21,0 15,5 10 5 16 8 N 1022,4 - 0,0
24.06.2017 21:00:00 21,1 15,0 10 5 18 10 NNE 1021,6 - 0,0
24.06.2017 20:00:00 21,7 15,5 10 5 24 13 N 1021,6 - 0,0
24.06.2017 19:00:00 21,8 16,1 14 8 29 16 N 1021,7 - 0,0
24.06.2017 18:00:00 22,4 16,2 19 11 28 15 NNW 1022,0 - 0,0
24.06.2017 17:00:00 23,0 15,6 17 9 27 15 N 1021,9 - 0,0
24.06.2017 16:00:00 23,4 15,4 14 8 22 12 N 1021,8 - 0,0
24.06.2017 15:00:00 24,1 15,8 12 7 16 9 NNE 1022,1 - 0,0
24.06.2017 14:00:00 24,4 15,6 10 6 16 9 NNE 1022,2 20 0,0
24.06.2017 13:00:00 24,3 15,2 7 4 21 11 NNE 1022,5 - 0,0
24.06.2017 12:00:00 24,3 15,8 13 7 23 12 E 1022,3 - 0,0
24.06.2017 11:00:00 22,6 15,4 11 6 19 11 ESE 1022,4 20 0,0
24.06.2017 10:00:00 21,8 16,3 8 5 14 8 E 1022,8 - 0,0
24.06.2017 09:00:00 20,2 16,0 6 4 14 7 E 1023,0 - 0,0
24.06.2017 08:00:00 19,7 16,7 10 5 23 12 SE 1022,9 17 0,0
24.06.2017 07:00:00 19,5 16,7 10 6 17 9 SE 1022,9 - 0,0
24.06.2017 06:00:00 19,5 16,9 10 6 14 8 SE 1023,0 - 0,0
24.06.2017 05:00:00 19,4 16,6 7 4 10 6 SE 1023,2 20 0,0
24.06.2017 04:00:00 19,3 16,9 5 3 8 4 S 1024,1 - 0,0
24.06.2017 03:00:00 20,1 16,1 4 2 13 7 NE 1024,4 - 0,0
24.06.2017 02:00:00 20,5 15,3 8 4 14 8 N 1024,8 20 0,0
24.06.2017 01:00:00 20,4 15,6 8 5 19 10 N 1025,2 - 0,0
24.06.2017 00:00:00 20,8 16,0 9 5 15 8 N 1025,4 - 0,0
23.06.2017 23:00:00 20,8 16,2 10 6 17 9 NNE 1025,3 20 0,0
23.06.2017 22:00:00 20,8 16,6 7 4 13 7 N 1024,7 - 0,0
23.06.2017 21:00:00 21,0 17,2 6 4 16 9 NNW 1024,4 - 0,0
23.06.2017 20:00:00 21,4 16,8 6 3 16 9 WNW 1024,2 15 0,0
23.06.2017 19:00:00 21,8 16,3 7 4 16 9 NW 1023,9 - 0,0
23.06.2017 18:00:00 21,9 16,0 11 6 21 11 NW 1024,0 - 0,0
23.06.2017 17:00:00 21,9 16,6 14 8 23 12 NNW 1024,0 18 0,0
23.06.2017 16:00:00 21,8 16,5 15 8 21 11 NNW 1023,9 - 0,0
23.06.2017 15:00:00 22,1 16,6 14 8 24 13 WNW 1023,7 - 0,0
23.06.2017 14:00:00 22,2 18,2 18 10 25 14 WNW 1023,9 - 0,0
23.06.2017 13:00:00 22,0 18,0 16 9 22 12 WNW 1024,1 - 0,0
23.06.2017 12:00:00 21,3 18,3 18 10 23 13 W 1024,2 - 0,0
23.06.2017 11:00:00 20,8 18,7 9 5 17 9 WSW 1024,3 12 0,0
23.06.2017 10:00:00 19,4 18,1 11 6 18 10 SW 1024,1 - 0,0
23.06.2017 09:00:00 19,0 18,0 6 3 17 9 SSW 1023,8 - 0,2
23.06.2017 08:00:00 18,8 18,0 12 6 18 10 SW 1023,4 - 0,0
23.06.2017 07:00:00 18,7 17,9 8 4 18 10 SSW 1023,2 - 0,2
23.06.2017 06:00:00 19,0 18,2 16 9 27 15 WSW 1022,9 - 0,0
23.06.2017 05:00:00 19,4 18,2 13 7 29 16 WSW 1022,9 15 0,0
23.06.2017 04:00:00 19,5 18,8 20 11 31 17 W 1022,7 - 0,2
23.06.2017 03:00:00 19,4 18,6 17 9 36 20 W 1022,9 - 0,6
23.06.2017 02:00:00 20,0 19,0 25 14 39 21 W 1022,8 17 0,2
23.06.2017 01:00:00 20,7 17,5 29 16 39 21 WNW 1022,5 - 0,0
23.06.2017 00:00:00 20,5 17,9 30 16 37 20 WNW 1022,1 - 0,0
22.06.2017 23:00:00 20,0 18,7 18 10 33 18 W 1021,9 12 0,2
22.06.2017 22:00:00 19,8 18,6 15 8 34 19 W 1021,4 - 0,0
22.06.2017 21:00:00 20,0 18,5 24 13 39 21 W 1021,1 - 0,0
22.06.2017 20:00:00 20,7 18,8 26 14 41 22 W 1020,6 - 0,0
22.06.2017 19:00:00 21,0 18,6 26 14 36 20 W 1019,8 - 0,0
22.06.2017 18:00:00 21,1 18,8 28 15 40 22 WNW 1020,0 - 0,0
22.06.2017 17:00:00 21,3 18,7 26 14 32 17 WNW 1020,0 8 0,0
22.06.2017 16:00:00 21,5 18,9 23 12 31 17 W 1019,8 - 0,0
22.06.2017 15:00:00 21,8 19,2 20 11 - - WNW 1019,8 - 0,0
22.06.2017 14:00:00 21,7 18,9 - - - - - 1019,5 - 0,0
22.06.2017 13:00:00 21,7 19,1 14 7 22 12 NW 1019,3 - 0,0
22.06.2017 12:00:00 21,7 19,4 16 9 - - WNW 1019,2 - 0,0
22.06.2017 11:00:00 21,7 19,3 17 9 23 13 WNW 1019,1 - 0,0
22.06.2017 10:00:00 21,5 19,2 18 10 27 14 NW 1018,7 - 0,0
22.06.2017 09:00:00 21,5 19,4 20 11 30 16 WNW 1018,3 - 0,0
22.06.2017 08:00:00 21,4 19,5 23 12 34 18 WNW 1017,8 5 0,0
22.06.2017 07:00:00 21,3 19,8 26 14 37 20 WNW 1017,3 - 0,0
22.06.2017 06:00:00 21,6 20,4 31 17 41 22 W 1016,9 - 0,0
22.06.2017 05:00:00 21,9 21,2 27 14 34 18 W 1016,3 17 0,0
22.06.2017 04:00:00 22,2 21,9 26 14 37 20 W 1016,0 - 0,0
22.06.2017 03:00:00 22,9 22,1 26 14 38 20 W 1015,7 - 0,0
22.06.2017 02:00:00 21,9 19,6 10 6 16 8 W 1015,8 17 0,0
22.06.2017 01:00:00 21,9 17,9 9 5 14 8 W 1015,8 - 0,0
22.06.2017 00:00:00 22,9 17,8 6 4 12 6 WNW 1015,5 - 0,0
21.06.2017 23:00:00 24,4 18,8 4 2 10 6 SSW 1015,4 - 0,0
21.06.2017 22:00:00 25,5 19,2 4 2 9 5 SSW 1014,8 - 0,0
21.06.2017 21:00:00 27,8 20,9 6 3 12 6 NNW 1014,7 - 0,0
21.06.2017 20:00:00 29,3 21,5 6 3 16 8 N 1014,2 30 0,0
21.06.2017 19:00:00 29,5 21,7 5 3 11 6 E 1013,9 - 0,0
21.06.2017 18:00:00 29,8 22,3 7 4 15 8 NE 1013,6 - 0,0
21.06.2017 17:00:00 29,9 22,3 7 4 15 8 NE 1013,7 - 0,0
21.06.2017 16:00:00 30,5 22,9 6 3 16 9 NE 1014,1 - 0,0
21.06.2017 15:00:00 29,8 22,3 9 5 15 8 NE 1014,4 - 0,0
21.06.2017 14:00:00 30,6 22,5 6 3 17 9 NE 1014,9 - 0,0
21.06.2017 13:00:00 29,4 21,9 10 6 14 8 NE 1015,2 - 0,0
21.06.2017 12:00:00 28,3 21,3 8 4 11 6 NE 1015,4 - 0,0
21.06.2017 11:00:00 28,1 22,1 8 4 10 5 NNE 1015,3 - 0,0
21.06.2017 10:00:00 27,3 20,1 4 2 7 4 ENE 1015,2 - 0,0
21.06.2017 09:00:00 24,3 19,1 4 2 10 5 E 1015,3 - 0,0
21.06.2017 08:00:00 20,9 19,6 2 1 6 3 S 1015,0 20 0,0
21.06.2017 07:00:00 20,1 18,8 3 2 10 5 WNW 1014,8 - 0,0
21.06.2017 06:00:00 20,2 18,7 5 3 12 7 SSE 1014,6 - 0,0
21.06.2017 05:00:00 20,7 19,0 5 3 11 6 SSE 1014,9 - 0,0
21.06.2017 04:00:00 20,9 18,7 5 3 9 5 SSE 1015,4 - 0,0
21.06.2017 03:00:00 21,4 18,6 6 3 11 6 S 1015,7 - 0,0
21.06.2017 02:00:00 21,3 18,5 4 2 9 5 S 1016,1 - 0,0
21.06.2017 01:00:00 22,0 18,4 2 1 6 3 E 1016,3 - 0,0
21.06.2017 00:00:00 22,7 18,5 3 2 8 4 ESE 1016,4 - 0,0
20.06.2017 23:00:00 23,6 18,9 5 3 11 6 SW 1016,3 15 0,0
20.06.2017 22:00:00 24,6 19,0 4 2 9 5 S 1016,0 - 0,0
20.06.2017 21:00:00 25,6 22,5 8 5 23 12 W 1015,6 - 0,0
20.06.2017 20:00:00 26,8 21,8 16 9 24 13 W 1015,6 - 0,0
20.06.2017 19:00:00 27,8 22,1 19 10 26 14 W 1015,4 - 0,0
20.06.2017 18:00:00 29,4 22,6 12 6 18 10 W 1015,2 - 0,0
20.06.2017 17:00:00 31,2 20,8 4 2 9 5 NW 1015,3 20 0,0
20.06.2017 16:00:00 30,8 21,9 6 3 11 6 N 1015,8 - 0,0
20.06.2017 15:00:00 30,1 20,6 5 3 14 8 N 1016,2 - 0,0
20.06.2017 14:00:00 31,0 21,5 11 6 16 9 NNW 1016,2 20 0,0
20.06.2017 13:00:00 30,3 20,0 9 5 24 13 WNW 1016,2 - 0,0
20.06.2017 12:00:00 31,7 16,0 19 11 36 19 S 1016,2 - 0,0
20.06.2017 11:00:00 30,6 15,8 15 8 28 15 S 1016,2 - 0,0
20.06.2017 10:00:00 29,6 16,1 21 11 32 17 S 1016,1 - 0,0
20.06.2017 09:00:00 28,0 16,6 11 6 23 13 S 1016,1 - 0,0
20.06.2017 08:00:00 25,7 15,4 14 8 24 13 SSW 1016,2 22 0,0
20.06.2017 07:00:00 25,7 14,5 18 10 29 16 S 1016,0 - 0,0

tt = Température de l'air
td = dewpoint
ff = Vitesse du vent
fx = gusts
dd = Direction du vent
ppp = reduced air pressure
vv = visibility
rr = Quantités de précipitations

stations d'obs. à proximité